Regional Weather Roundup
Issued by NWS Grand Forks, ND

Home | Current Version | Previous Version | Graphics & Text | Print | Product List | Glossary On
Versions: 1 2 3 4 5 6 7 8 9 10 11 12 13 14 15 16 17 18 19 20 21 22 23 24 25 26 27 28 29 30 31 32 33 34 35 36 37 38 39 40 41 42 43 44 45 46 47 48 49 50
000
ASUS43 KFGF 250410
RWRFGF
PRAIRIE TO PINES  WEATHER ROUNDUP
NATIONAL WEATHER SERVICE EASTERN NORTH DAKOTA/GRAND FORKS ND
1100 PM CDT THU JUL 24 2014

 **SATELLITE DATA USED TO AUGMENT SKY COVER AT AUTOMATED STATIONS**
 *****  WEATHER ACROSS EASTERN NORTH DAKOTA  *****

CITY           SKY/WX    TMP DP  RH WIND       PRES   REMARKS
GRAND FORKS    MOCLDY    69  62  78 SE6       29.81R
GRAND FRKS AFB CLOUDY    69  65  88 E6        29.81R
GRAND FRKS NWS   N/A     70 N/A N/A SE3         N/A
DEVILS LAKE    PTCLDY    70  61  73 SE9       29.78R
FARGO          CLOUDY    71  62  73 SE9       29.80R
WAHPETON ARPT  PTCLDY    68  57  68 S24G30    29.74F
$$

 ***** WEATHER ACROSS CENTRAL AND WESTERN NORTH DAKOTA  *****

CITY           SKY/WX    TMP DP  RH WIND       PRES   REMARKS
BISMARCK       CLOUDY    72  64  76 E6        29.72S
MINOT          LGT RAIN  70  66  87 CALM      29.77R
JAMESTOWN      MOCLDY    69  63  81 S16G25    29.71S
MINOT AFB      DRIZZLE   71  71  98 E6        29.75F
GARRISON         N/A     70  67  90 E8        29.73F
WILLISTON      CLOUDY    66  61  84 NE10      29.78S
DICKINSON      CLOUDY    70  66  87 N5        29.72S
HETTINGER      MOCLDY    71  64  78 E3        29.70F
$$

 *****  OTHER AIRPORT OBSERVATIONS IN OUR AREA  *****

CITY           SKY/WX    TMP DP  RH WIND       PRES   REMARKS
WALHALLA         N/A     70  66  88 SE8         N/A
GRAFTON AIRPOR CLOUDY    68  63  83 S9        29.81S
VALLEY CITY AR FAIR      68  66  94 E7        29.77R
CANDO          CLOUDY    68  64  88 SE9       29.79F
CAVALIER APRT  CLOUDY    70  63  78 S7        29.81S
GWINNER          N/A     70  66  88 SE16      29.76F
ROLLA          CLOUDY    66  66 100 SE10      29.81R
 ***** THE ABOVE OBSERVATIONS ARE NON NWS ARE NOT QUALITY
       CONTROLLED AND MAY MIS-REPORT RAIN FOR SNOW...
$$

  *****  WEATHER ACROSS NORTHERN MINNESOTA  *****

CITY           SKY/WX    TMP DP  RH WIND       PRES   REMARKS
FLAG ISLAND    PTCLDY    72  61  68 S12       29.83S
WARROAD        CLEAR     66  63  88 SE8       29.84S
ROSEAU         PTCLDY    64  61  88 SE6       29.85R
HALLOCK        CLOUDY    66  64  94 SE3       29.82R
THF RVR FALLS  MOCLDY    66  57  72 SE7       29.84R
BAUDETTE       MOCLDY    65  60  84 SE6       29.87S
WASKISH        PTCLDY    63  59  88 CALM      29.86S
CROOKSTON      MOCLDY    66  61  82 SE3       29.83R
$$
  *****  WEATHER ACROSS CENTRAL AND WEST MINNESOTA  *****

CITY           SKY/WX    TMP DP  RH WIND       PRES   REMARKS
FOSSTON        MOCLDY    64  55  72 SE3       29.86R
BEMIDJI        MOCLDY    66  58  73 SE8       29.87R
PARK RAPIDS    MOCLDY    68  59  73 SE8       29.87R
ELBOW LAKE     FAIR      66  60  81 SE17      29.81F
WADENA         MOCLDY    66  61  82 SE10      29.84F
DETROIT LAKES  MOCLDY    68  61  77 SE14      29.85R
MOORHEAD       MOCLDY    72  64  78 SE6       29.81R
FERGUS FALLS   PTCLDY    68  57  68 S23G29    29.77S
MORRIS MN      MOCLDY    66  63  88 SE12      29.83F
STAPLES        PTCLDY    66  59  77 SE7       29.86F
$$
  *****  WEATHER ELSEWHERE ACROSS MINNESOTA  *****

CITY           SKY/WX    TMP DP  RH WIND       PRES   REMARKS
DULUTH         LGT RAIN  66  56  70 SE7       29.91F
INTRNTL FALLS  CLEAR     60  57  89 SE3       29.87F
ELY            PTCLDY    59  55  88 S3        29.93F
CLOQUET        CLOUDY    64  55  72 CALM      29.91F
WHEATON        MOCLDY    64  61  88 SE14      29.81F
BRAINERD       PTCLDY    65  60  84 S5        29.89F
HIBBING        CLOUDY    64  57  78 CALM      29.89F
ALEXANDRIA     MOCLDY    66  61  84 SE14      29.87F
SAINT CLOUD    PTCLDY    67  62  84 S8        29.92F
MINNEAPOLIS    PTCLDY    73  60  63 SW8       29.96R
$$

  *****  WEATHER ACROSS SOUTH DAKOTA  *****

CITY           SKY/WX    TMP DP  RH WIND       PRES   REMARKS
SIOUX FALLS    MOCLDY    71  62  73 SE14      29.81S
BROOKINGS      NOT AVBL
WATERTOWN      MOCLDY    66  60  81 SE10      29.80F
HURON          PTCLDY    71  63  75 SE15G25   29.70F
SISSETON         N/A     67  63  87 SE12G18   29.79F
ABERDEEN       MOCLDY    69  63  81 SE10      29.72F
MITCHELL       MOCLDY    74  64  71 S16G24    29.72F
PIERRE         CLOUDY    82  70  66 SE14      29.61R
MOBRIDGE       TSTM      70  67  90 SW3       29.79R
RAPID CITY     CLEAR     84  58  40 NW13G22   29.71R
$$

  *****  SOME WEATHER IN NEARBY STATES *****

CITY           SKY/WX    TMP DP  RH WIND       PRES   REMARKS
GLASGOW MT     CLEAR     65  38  36 N5        29.84R
GREAT FALLS MT CLEAR     59  33  37 W17G28    29.96R
CHEYENNE WY    MOCLDY    77  48  35 SW14G23   30.11R
SCOTTSBLUFF NE CLEAR     74  57  55 SE7       29.89R
OMAHA NE       PTCLDY    75  59  57 S21G31    29.87F
DES MOINES IA  PTCLDY    72  59  63 S10       29.91R
DAVENPORT IA   MOCLDY    64  56  75 S8        30.01S
CHICAGO IL     PTCLDY    61  44  53 S7        30.05F
EAU CLAIRE WI  CLEAR     67  58  72 CALM      29.97S
LA CROSSE WI   CLEAR     70  60  70 SE5       29.97R
$$

  *****  SOME NATIONAL WEATHER *****

CITY           SKY/WX    TMP DP  RH WIND       PRES   REMARKS
LA GUARDIA NY  MOCLDY    73  57  57 N9        29.90S
RALEIGH NC     MOCLDY    69  66  90 NE3       29.97R
ATLANTA GA     PTCLDY    73  70  90 W6        29.99S
NEW ORLEANS LA PTCLDY    79  73  82 SW6       29.99R
OKLAHOMA CITY  PTCLDY    79  69  71 SE8       30.00R
ALBUQUERQUE NM PTCLDY    81  44  27 SE7       30.18R
SALT LAKE CITY MOCLDY    80  47  31 S3        29.95R
LOS ANGELES CA PTCLDY    73  61  65 SW6       29.77R
BOISE ID       CLEAR     70  29  21 NW6       30.06S
SEATTLE WA     MOCLDY    60  53  77 NE8       30.22R
$$

*** WEATHER ACROSS MANITOBA...SASKATCHEWAN AND ONTARIO ***
                ***ONTARIO***

CITY           SKY/WX    TMP DP  RH WIND       PRES   REMARKS
GERALDTON      CLEAR     61  52  72 SW6       29.87F
THUNDER BAY    CLEAR     57  54  88 CALM      29.92F
SIOUX LOOKOUT  PTCLDY    55  54  94 SW2       29.89F
TORONTO        PTCLDY    63  46  55 NW7       30.05S
BIG TROUT LK   CLEAR     64  54  68 N6        29.78R
PICKLE LAKE    NOT AVBL
DRYDEN         CLEAR     63  57  82 E2        29.88F
KENORA         MOCLDY    64  57  77 E5        29.87F
$$
                *** MANITOBA***

CITY           SKY/WX    TMP DP  RH WIND       PRES   REMARKS
BRANDON        CLOUDY    68  63  83 SE7       29.79S
DAUPHIN        MOCLDY    66  63  88 S7        29.79R
ISLAND LAKE    PTCLDY    63  57  82 CALM      29.81F
PILOT MOUND      N/A     66  61  82 SE8         N/A
THE PAS        PTCLDY    66  57  72 E10       29.72F
THOMPSON       PTCLDY    61  55  82 W2        29.79S
WINNIPEG       CLEAR     68  61  77 SE9       29.82R
LYNN LAKE      CLEAR     68  54  60 SE6       29.77F
CHURCHILL      PTCLDY    52  46  82 NE5       29.88R
GILLAM         MOCLDY    61  52  72 E5        29.84R
$$
                ***SASKATCHEWAN***

CITY           SKY/WX    TMP DP  RH WIND       PRES   REMARKS
ESTEVAN        NOT AVBL
KINDERSLEY     PTCLDY    55  48  76 S12       29.62F
LLOYDMINSTER   CLOUDY    55  50  82 S8        29.57F
PRINCE ALBERT  TSTM      61  59  94 NW7       29.63F FOG
REGINA         MOCLDY    59  57  94 W10       29.77R
YORKTON        LGT RAIN  63  59  88 SW10G26   29.77R
N. BATTLEFORD  MOCLDY    54  54 100 E5        29.63F
LA RONGE       MOCLDY    70  59  68 E10G21    29.63F
SASKATOON      MOCLDY    59  55  88 S6        29.66R
SWIFT CURRENT  CLEAR     55  45  67 SW13G37   29.74S
$$
NOTE: THESE ARE AUTOMATED STATIONS WITH LIMITED QUALITY CONTROL
      "FAIR" INDICATES FEW OR NO CLOUDS BELOW 12,000 FEET WITH NO
      SIGNIFICANT WEATHER AND/OR OBSTRUCTIONS TO VISIBILITY.
      SKY/WX - SKY CONDITION AND SIGNIFICANT WEATHER.
      TMP - AIR TEMPERATURE.    DP   - DEWPOINT TEMPERATURE.
      RH  - RELATIVE HUMIDITY.  PRES - PRESSURE.
      HX  - HEAT INDEX.         WCI  - WIND CHILL INDEX.
$



USA.gov is the U.S. government's official web portal to all federal, state and local government web resources and services.